Location: Haieshausen
(51.8387°N, 9.9720°E)
Time: 04:35:03
(UTC+00:00)

Cosmos 220 Rocket - Pass Details

Date: 14 July 2020
Orbit: 576 x 616 km, 74.0° (Epoch: 10 August)

Event Time Altitude Azimuth Distance (km) Brightness Sun altitude
Rises 00:53:08 0° 333° (NNW) 2,832 8.1 -14.1°
Reaches altitude 10° 00:55:23 10° 331° (NNW) 1,920 7.1 -14.0°
Maximum altitude 00:59:38 68° 249° (WSW) 629 3.9 -13.7°
Enters shadow 01:02:52 16° 168° (SSE) 1,519 5.6 -13.5°
